Мрежа за олује и муње у тренутном времену - Real time lightning map
Региони/Државе: current only
Листа станица за "-", сортиране растуће по Држава
(Држава = Држава у којој се станица налази (додељује корисник))
StationГрадКоментарДржаваРегиониСтатусПоследњи сигналTotalValidInvolvedUsedClosestFarthest
2353WhyallaMostly relying on e field ante...Australia / South AustraliaJapan 1Running2024-02-27 17:1450364219864237 km5106 km
2438Athelstone (IADELA729)2 x 200mm Ferrite, 200mm E-fie...Australia / South AustraliaOceania 1Running2024-02-27 17:1417315118991224815285 km5142 km
2667Para Hills WestBack To Testing StageAustralia / South AustraliaOceania 1Running2024-02-26 12:19000024000 km0 km
2953StrathalbynSHR/Hallett/CFS SBYN-02Australia / South AustraliaOceania 1Running2024-02-27 17:144061628008955601268 km5182 km
2976AdelaideAustralia / South AustraliaOceania 1Running2024-02-27 17:135841910215128278 km4313 km
972KingstonTrialing AntennasAustralia / TasmaniaOceania 1Offline2023-08-08 10:27000024000 km0 km
1833KingstonLoops N-S and E-WAustralia / TasmaniaOceania 1Running2024-02-27 17:142509719206871314813 km6051 km
1833KingstonLoops N-S and E-WAustralia / TasmaniaSouth America 1Running2024-02-27 17:14251021921121190 km12027 km
1833KingstonLoops N-S and E-WAustralia / TasmaniaAfrica 1Running2024-02-27 17:142510319212330 km10987 km
2048StowportBlue 19.4, 2x 200mm ferrite, 1...Australia / TasmaniaOceania 1Running2024-02-27 17:141212511918737405628 km5604 km
2050Sandy BayU of Tas Environmental Change ...Australia / TasmaniaOceania 1Running2024-02-27 17:1414496119841375586814 km6248 km
2050Sandy BayU of Tas Environmental Change ...Australia / TasmaniaSouth America 1Running2024-02-27 17:14144981198512110 km12138 km
2050Sandy BayU of Tas Environmental Change ...Australia / TasmaniaAfrica 1Running2024-02-27 17:141450111988210 km11100 km
2064OrfordAustralia / TasmaniaOceania 1Idle2022-10-30 00:00000024000 km0 km
2121CradocLoop AntennaAustralia / TasmaniaOceania 1Running2024-02-27 17:1417041114771317535806 km6240 km
849Corryong, VicAustralia / VictoriaOceania 1Running2024-02-27 17:1315667884852861010 km5493 km
919AcheronOnlineAustralia / VictoriaOceania 1Running2024-02-27 17:1416618127031203948626 km5652 km
1323SilvanAntenna approx 4m above groundAustralia / VictoriaOceania 1Running2024-02-27 17:1468533135478300755 km5551 km
1613PortarlingtonSystem blue. 100mm E-fieldAustralia / VictoriaOceania 1Running2024-02-27 17:13426236831178551727 km5608 km
1679BallaratE-field built-in, and now grou...Australia / VictoriaEurope 1Running2024-02-23 14:21000024000 km0 km
1679BallaratE-field built-in, and now grou...Australia / VictoriaOceania 1Running2024-02-23 14:21000024000 km0 km
1679BallaratE-field built-in, and now grou...Australia / VictoriaSouth America 1Running2024-02-23 14:21000024000 km0 km
1679BallaratE-field built-in, and now grou...Australia / VictoriaAfrica 1Running2024-02-23 14:21000024000 km0 km
1890StawellUnder test firmware 19.3Australia / VictoriaOceania 1Offline2022-11-06 12:58000024000 km0 km
2066MordiallocAustralia / VictoriaOceania 1Interference2023-12-07 23:44000024000 km0 km
2081DromanaNew setup, indoors for testingAustralia / VictoriaOceania 1Running2024-02-27 17:131242969516226702 km5555 km
2090EnsayAustralia / VictoriaOceania 1Running2024-02-27 17:1465982131420 km2466 km
2090EnsayAustralia / VictoriaAsia 1Running2024-02-27 17:146598213000 km0 km
2090EnsayAustralia / VictoriaSouth America 1Running2024-02-27 17:146598213000 km0 km
2090EnsayAustralia / VictoriaAfrica 1Running2024-02-27 17:146598213000 km0 km
2090EnsayAustralia / VictoriaJapan 2Running2024-02-27 17:146598213220 km8190 km
2098Neerim EastAustralia / VictoriaOceania 1Running2024-02-27 17:1427132179661237745800 km5878 km
2098Neerim EastAustralia / VictoriaAsia 1Running2024-02-27 17:142714017971633695 km5799 km
2098Neerim EastAustralia / VictoriaSouth America 1Running2024-02-27 17:142714517975760 km11837 km
2098Neerim EastAustralia / VictoriaAfrica 1Running2024-02-27 17:142715317981110 km11987 km
2098Neerim EastAustralia / VictoriaJapan 2Running2024-02-27 17:1427167179881335511 km14531 km
2118BlackburnSystem Blue 19.4 @ v9.4, H two...Australia / VictoriaOceania 1Running2024-02-27 17:144152527814900662732 km5807 km
2120Keilor ParkSystem Blue. 2x 20cm ferrites....Australia / VictoriaEurope 1Bad GPS2023-11-05 22:35000024000 km0 km
2120Keilor ParkSystem Blue. 2x 20cm ferrites....Australia / VictoriaOceania 1Bad GPS2023-11-05 22:35000024000 km0 km
2120Keilor ParkSystem Blue. 2x 20cm ferrites....Australia / VictoriaSouth America 1Bad GPS2023-11-05 22:35000024000 km0 km
2120Keilor ParkSystem Blue. 2x 20cm ferrites....Australia / VictoriaAfrica 1Bad GPS2023-11-05 22:35000024000 km0 km
2136SeatonGippsland - Eastern VictoriaAustralia / VictoriaOceania 1Offline2023-10-31 00:35000024000 km0 km
2139MooroolbarkV9.5b1 Blue, quiet PSU, low im...Australia / VictoriaEurope 1Idle2024-02-22 15:16000024000 km0 km
2139MooroolbarkV9.5b1 Blue, quiet PSU, low im...Australia / VictoriaOceania 1Idle2024-02-22 15:16000024000 km0 km
2139MooroolbarkV9.5b1 Blue, quiet PSU, low im...Australia / VictoriaAfrica 1Idle2024-02-22 15:16000024000 km0 km
2167HeathmontAustralia / VictoriaOceania 1Offline2024-02-27 11:18000024000 km0 km
2167HeathmontAustralia / VictoriaSouth America 1Offline2024-02-27 11:18000024000 km0 km
2167HeathmontAustralia / VictoriaAfrica 1Offline2024-02-27 11:18000024000 km0 km
2233WoodendAustralia / VictoriaEurope 1Running2024-02-27 17:1320547641802411 km2643 km
2233WoodendAustralia / VictoriaOceania 1Running2024-02-27 17:132054764459262708 km3928 km
2233WoodendAustralia / VictoriaSouth America 1Running2024-02-27 17:132054764312399 km2499 km
2233WoodendAustralia / VictoriaAfrica 1Running2024-02-27 17:1419927651322417 km5217 km
2233WoodendAustralia / VictoriaEurope 2Running2024-02-27 17:1419927653022140 km19048 km
2233WoodendAustralia / VictoriaEurope 3Running2024-02-27 17:1419927653222140 km19048 km
2391HeathcoteV9.2 Blue, Leon Mow Radio Obse...Australia / VictoriaOceania 1Running2024-02-27 17:14203351705213771129565 km5714 km
2979StawellAustralia / VictoriaOceania 1Running2024-02-27 17:13516543331238821408 km5407 km
844RockinghamRebirth (temporary)Australia / Western AustraliaOceania 1Running2024-02-27 17:1410273300410088411099 km3889 km
844RockinghamRebirth (temporary)Australia / Western AustraliaIndia 1Running2024-02-27 17:14102853006414787 km4847 km
973Willetton, PerthAustralia / Western AustraliaOceania 1Running2024-02-27 17:1361355664125910451069 km3665 km
1515BaldivisAustralia / Western AustraliaOceania 1Offline2023-04-16 03:36000024000 km0 km
2418Morley, PerthAustralia / Western AustraliaOceania 1Running2024-02-27 17:138118143544241079 km3467 km
2418Morley, PerthAustralia / Western AustraliaIndia 1Running2024-02-27 17:138117143526192868 km5659 km
2677The Vines, PerthH fieldAustralia / Western AustraliaEurope 1Running2024-02-27 17:1433852310210 km8903 km
2677The Vines, PerthH fieldAustralia / Western AustraliaOceania 1Running2024-02-27 17:14338523106805011055 km3834 km
2677The Vines, PerthH fieldAustralia / Western AustraliaAsia 1Running2024-02-27 17:1433862311963005 km3488 km
2677The Vines, PerthH fieldAustralia / Western AustraliaAfrica 1Running2024-02-27 17:1433882312000 km0 km
2677The Vines, PerthH fieldAustralia / Western AustraliaJapan 1Running2024-02-27 17:14338823121082861 km4891 km
247Wiener NeustadtAustriaEurope 1Running2024-02-27 17:144960496052742 km1810 km
247Wiener NeustadtAustriaSouth America 1Running2024-02-27 17:14496049601212484 km9552 km
247Wiener NeustadtAustriaAfrica 1Running2024-02-27 17:1449604960400 km5557 km
255DoblAustriaEurope 1Running2024-02-27 17:11121210220 km1453 km
265DesselbrunnAustriaEurope 1Offline2024-02-27 02:39000024000 km0 km
297Feistritz / DrauAustriaEurope 1Running2024-02-27 17:1317317392556 km2156 km
324GrazAustriaEurope 1Offline2023-05-03 20:34000024000 km0 km
404GuntramsdorfAustriaEurope 1Offline2022-07-23 12:41000024000 km0 km
468StockerauAustriaEurope 1Running2024-02-27 17:11121290504 km3200 km
708Ybbs an der DonauAustriaEurope 1Running2024-02-27 17:0762215231382733 km2097 km
708Ybbs an der DonauAustriaEurope 2Running2024-02-27 17:0762215231183728 km2095 km
708Ybbs an der DonauAustriaEurope 3Running2024-02-27 17:0762215231183728 km2095 km
730Steinbrunn SeeAustriaEurope 1Running2024-02-27 17:1348660898 km1451 km
730Steinbrunn SeeAustriaAsia 1Running2024-02-27 17:13486611292 km1446 km
730Steinbrunn SeeAustriaJapan 1Running2024-02-27 17:1348664407 km1314 km
730Steinbrunn SeeAustriaEurope 2Running2024-02-27 17:13486501081 km1809 km
730Steinbrunn SeeAustriaEurope 3Running2024-02-27 17:13486501081 km1809 km
754DornbirnSystem RED - OE9PGVAustriaEurope 1Running2024-02-27 17:13120795911624 km2869 km
754DornbirnSystem RED - OE9PGVAustriaEurope 2Running2024-02-27 17:13120804111614 km6712 km
754DornbirnSystem RED - OE9PGVAustriaEurope 3Running2024-02-27 17:13120804111614 km6712 km
759Hof bei SalzburgAustriaEurope 1Running2024-02-27 17:12169112549645 km3064 km
759Hof bei SalzburgAustriaEurope 2Running2024-02-27 17:12169112276656 km3064 km
759Hof bei SalzburgAustriaEurope 3Running2024-02-27 17:12169112276656 km3064 km
824SieghartskirchenOE3MNSAustriaEurope 1Running2024-02-27 17:1323798124763 km2136 km
824SieghartskirchenOE3MNSAustriaAfrica 1Running2024-02-27 17:1323798312051 km2072 km
824SieghartskirchenOE3MNSAustriaEurope 2Running2024-02-27 17:1323798104763 km2136 km
824SieghartskirchenOE3MNSAustriaEurope 3Running2024-02-27 17:1323798104763 km2136 km
884StroheimAustriaEurope 1Running2024-02-27 17:05493301553 km2029 km
884StroheimAustriaEurope 2Running2024-02-27 17:05493301522 km2029 km
884StroheimAustriaEurope 3Running2024-02-27 17:05493301522 km2029 km
885EbenseeRED - SKS 120N OE5LALAustriaEurope 1Running2024-02-27 17:1043661152672 km1870 km
885EbenseeRED - SKS 120N OE5LALAustriaAsia 1Running2024-02-27 17:1043661411148 km1745 km
885EbenseeRED - SKS 120N OE5LALAustriaSouth America 1Running2024-02-27 17:1043661802430 km9407 km
Друштвене мреже
facebook LIKE US ON FACEBOOK
twitter FOLLOW US IN TWITTER
Одаберите језик
češtinadanskdeutschελληνικάenglishespañolsuomeksifrançaismagyaritaliano日本語latviskinederlandsenorskмакедонскиpolskiрусскийсрпскиsvenskatürkукраїнський
Ако Ваш језик није подржан, или превод желите прилагодити, пошаљите мејл на info ☺ blitzortung.org.